Location: Владивосток
(43.1151°N, 131.8856°E)
Time: 01:16:45
(UTC+10:00)

Envisat - Pass Details

Date: 26 January 2022
Orbit: 764 x 765 km, 98.2° (Epoch: 17 May)

Event Time Altitude Azimuth Distance (km) Brightness Sun altitude
Rises 07:37:20 0° 357° (N) 3,240 6.0 -10.5°
Reaches altitude 10° 07:40:27 10° 336° (NNW) 2,310 5.1 -10.0°
Maximum altitude 07:43:29 16° 299° (WNW) 1,907 4.4 -9.4°
Drops below altitude 10° 07:46:32 10° 262° (W) 2,302 4.9 -8.9°
Sets 07:49:38 0° 242° (WSW) 3,223 5.8 -8.4°
